Miscellaneous Local Product
Issued by NWS North Platte, NE

Home | Current Version | Previous Version | Text Only | Print | Product List | Glossary On
Versions: 1 2 3 4 5 6 7 8 9 10 11 12 13 14 15 16 17 18 19 20 21 22 23 24 25 26 27 28 29 30 31 32 33 34 35 36 37 38 39 40 41 42 43 44 45 46 47 48 49 50
000
AXUS43 KLBF 291410
MISLBF


WESTERN AND NORTH CENTRAL NEBRASKA HOURLY WEATHER ROUNDUP
NATIONAL WEATHER SERVICE NORTH PLATTE NE
900 AM CDT FRI AUG 29 2014

***STATIONS NOT REPORTING VARIABLES SUCH AS SKY/WEATHER OR
PRESSURE ARE PROVIDED BY THE NEBRASKA DEPARTMENT OF
ROADS...RAWS...AND APRS NETWORKS...AND ARE NOT UNDER
NATIONAL WEATHER SERVICE QUALITY CONTROL***

...OBSERVATIONS IN AND NEAR THE EASTERN PANHANDLE OF NEBRASKA...

CITY           SKY/WX    TMP DP  RH WIND       PRES   REMARKS
PINE RIDGE     SUNNY     58  54  86 CALM      29.95R
CHADRON        SUNNY     61  55  81 SW8       29.96R
ALLIANCE       SUNNY     57  51  80 W5        29.98R
SIDNEY         SUNNY     62  49  62 W10       30.02S
WHITECLAY        N/A     61  55  82 CALM        N/A
RUSHVILLE        N/A     64  57  79 W5          N/A
GORDON           N/A     65  56  70 W7          N/A
CRESCENT LAKE    N/A     60  53  77 NW7         N/A
LISCO            N/A     59  52  78 W7          N/A
BIG SPRINGS      N/A     54  53  95 CALM        N/A
$$

...OBSERVATIONS IN NORTH CENTRAL NEBRASKA...

CITY           SKY/WX    TMP DP  RH WIND       PRES   REMARKS
VALENTINE      SUNNY     62  58  86 W5        29.89R
THEDFORD       SUNNY     61  57  87 NW5       29.92R
AINSWORTH      SUNNY     63  59  86 W7        29.88S
O`NEILL        FOG       65  65  99 NW9       29.85S VSB 1/4
ORD            MOSUNNY   65  61  87 NW7       29.84S
BROKEN BOW     MOSUNNY   66  60  81 CALM      29.87F
SPRINGVIEW       N/A     62  60  95 CALM        N/A
ROSE             N/A     68  68  98 W6          N/A
NEWPORT          N/A     68  66  94 W8          N/A
SARGENT          N/A     62  60  93 CALM        N/A
COMSTOCK         N/A     74  67  79 NW6         N/A
CHAMBERS         N/A     71  67  87 W3          N/A
EWING            N/A     65  64  98 CALM        N/A
$$

...OBSERVATIONS IN SOUTHWEST NEBRASKA AND FAR NORTHEAST COLORADO...

CITY           SKY/WX    TMP DP  RH WIND       PRES   REMARKS
HOLYOKE        FAIR      63  52  67 W7        29.99R
IMPERIAL       SUNNY     61  53  75 NW5       29.96R
OGALLALA       SUNNY     56  54  94 CALM      29.96S
NORTH PLATTE   SUNNY     61  56  83 W9        29.92S
MCCOOK         SUNNY     61  55  81 W7        29.93R
LEXINGTON      MOSUNNY   62  59  92 W5        29.89S
PAXTON           N/A     55  53  93 CALM        N/A
SUTHERLAND       N/A     56  54  92 W3          N/A
BRADY            N/A     60  56  88 CALM        N/A
GOTHENBURG       N/A     58  53  85 NW3         N/A
CALLAWAY         N/A     56  55  96 CALM        N/A
$$

...SOME WEATHER OBSERVATIONS FROM AROUND THE REGION...

CITY           SKY/WX    TMP DP  RH WIND       PRES   REMARKS
DENVER         MOSUNNY   59  46  62 SW12      30.11R
LARAMIE        MOSUNNY   47  43  86 SE5       30.24R
CHEYENNE       SUNNY     61  45  55 W9        30.13R
SCOTTSBLUFF    SUNNY     56  53  90 NW10      30.01R
RAPID CITY     MOSUNNY   71  51  49 NW23G31   29.96R
PIERRE         FOG       66  66 100 W3        29.81F VSB 1/2
WINNER         PTSUNNY   67  62  84 W10       29.85R
SIOUX FALLS    CLOUDY    70  68  93 SW3       29.80R
OMAHA          LGT RAIN  72  70  93 SE6       29.81R
GRAND ISLAND   PTSUNNY   67  63  87 NW8       29.84S
KANSAS CITY    PTSUNNY   77  66  68 S7        29.87S
WICHITA        PTSUNNY   71  65  81 CALM      29.90R
HAYS           MOSUNNY   70  57  64 NW12      29.90S
LIBERAL        SUNNY     66  54  63 NW9       30.00R
GOODLAND       SUNNY     62  54  74 NW7       29.99S
$$



USA.gov is the U.S. government's official web portal to all federal, state and local government web resources and services.